Location: Newark
(48.1500°N, 2.9667°W)
Time: 06:20:19
(UTC+00:00)

Transit 2A - Pass Details

Date: 01 February 2020
Orbit: 600 x 959 km, 66.7° (Epoch: 17 February)

Event Time Altitude Azimuth Distance (km) Brightness Sun altitude
Rises 04:15:26 0° 314° (NW) 3,027 - -34.3°
Reaches altitude 10° 04:18:02 10° 300° (WNW) 2,162 - -33.8°
Maximum altitude 04:21:55 24° 248° (WSW) 1,513 - -33.2°
Drops below altitude 10° 04:26:04 10° 197° (SSW) 2,334 - -32.5°
Sets 04:29:00 0° 184° (S) 3,328 - -32.1°
